Location: Crescent
(42.8242°N, 73.7329°W)
Time: 15:45:49
(UTC+00:00)

Explorer 11/Cluster Stage 4 - Pass Details

Date: 20 February 2026
Orbit: 463 x 1176 km, 28.8° (Epoch: 9 March)

Event Time Altitude Azimuth Distance (km) Brightness Sun altitude
Rises 17:21:14 0° 224° (SW) 2,975 10.2 36.4°
Reaches altitude 10° 17:26:06 10° 181° (S) 1,860 9.9 36.3°
Maximum altitude 17:26:33 10° 175° (S) 1,833 9.8 36.3°
Drops below altitude 10° 17:27:01 10° 168° (SSE) 1,826 9.7 36.3°
Sets 17:31:18 0° 122° (ESE) 2,575 9.5 36.2°
